Olathe, KS

3:39 AM CDT on March 27, 2017 (GMT -0500)
Johnson County Executive

Weather History for KOJC - June, 2012

Change the Weather History Date:

Saturday, June 16, 2012

  Actual Average Record
Temperature  
Mean Temperature 79 °F 74 °F  
Max Temperature 89 °F 83 °F 96 °F (1978)
Min Temperature 68 °F 64 °F 51 °F (1969)
Degree Days  
Heating Degree Days 0 0  
Month to date heating degree days 8 6  
Since 1 June heating degree days 8 6  
Since 1 July heating degree days 3815 4932  
Cooling Degree Days 14 9  
Month to date cooling degree days 124 114  
Year to date cooling degree days 384 218  
Since 1 June cooling degree days 124 114  
Growing Degree Days 28 (Base 50)    
Moisture  
Dew Point 64 °F    
Average Humidity 67    
Maximum Humidity 90    
Minimum Humidity 43    
Precipitation  
Precipitation 0.00 in 0.21 in 1.57 in (1943)
Month to date precipitation 0.33 3.40  
Year to date precipitation 11.72 18.14  
Sea Level Pressure  
Sea Level Pressure 29.95 in    
Wind  
Wind Speed 8 mph (WSW)    
Max Wind Speed 20 mph    
Max Gust Speed 32 mph    
Visibility 10 miles    
Events      
T = Trace of Precipitation, MM = Missing Value Source: NWS Daily Summary

Daily Weather History Graph

Daily Weather History Graph

Search for Another Location

Airport or City:

Trip Planner

Search our weather history database for the weather conditions in past years. The results will help you decide how hot, cold, wet, or windy it might be!

Date:

Astronomy

Jun. 16, 2012 Rise Set
Actual Time 5:53 AM CDT 8:46 PM CDT
Civil Twilight 5:21 AM CDT 9:18 PM CDT
Nautical Twilight 4:40 AM CDT 9:58 PM CDT
Astronomical Twilight 3:54 AM CDT 10:45 PM CDT
Moon 3:42 AM CDT (6/16) 6:23 PM CDT (6/16)
Length of Visible Light 15h 57m
Length of Day
14h 53m
Waning Crescent, 8% of the Moon is Illuminated
Jun 16
Waning Crescent
Jun 19
New
Jun 26
First Quarter
Jul 3
Full
Jul 10
Last Quarter

Hourly Weather History & Observations

Time (CDT) Temp. Heat Index Dew Point Humidity Pressure Visibility Wind Dir Wind Speed Gust Speed Precip Events Conditions
12:53 AM 69.1 °F - 62.1 °F 78% 29.96 in 10.0 mi South 4.6 mph - N/A   Clear
1:53 AM 70.0 °F - 62.1 °F 76% 29.96 in 10.0 mi South 4.6 mph - N/A   Clear
2:53 AM 70.0 °F - 63.0 °F 78% 29.96 in 10.0 mi SSW 5.8 mph - N/A   Clear
3:53 AM 69.1 °F - 63.0 °F 81% 29.94 in 10.0 mi South 4.6 mph - N/A   Clear
5:53 AM 70.0 °F - 66.0 °F 87% 29.94 in 10.0 mi SSW 4.6 mph - N/A   Clear
6:53 AM 71.1 °F - 66.9 °F 87% 29.97 in 10.0 mi SSW 5.8 mph - N/A   Clear
7:53 AM 73.0 °F - 68.0 °F 84% 29.99 in 10.0 mi WSW 3.5 mph - N/A   Clear
8:53 AM 79.0 °F - 69.1 °F 72% 29.99 in 10.0 mi WSW 15.0 mph 20.7 mph N/A   Scattered Clouds
9:53 AM 81.0 °F 83.3 °F 66.9 °F 62% 29.97 in 10.0 mi SW 8.1 mph - N/A   Clear
10:53 AM 82.0 °F 83.4 °F 64.0 °F 54% 29.94 in 10.0 mi South 6.9 mph - N/A   Clear
11:53 AM 84.9 °F 85.9 °F 63.0 °F 48% 29.92 in 10.0 mi SSW 6.9 mph - N/A   Clear
12:53 PM 84.9 °F 85.9 °F 63.0 °F 48% 29.95 in 10.0 mi SSW 8.1 mph - N/A   Clear
1:53 PM 86.0 °F 86.8 °F 63.0 °F 46% 29.95 in 10.0 mi SSW 12.7 mph 24.2 mph N/A   Scattered Clouds
2:53 PM 88.0 °F 88.4 °F 62.1 °F 42% 29.93 in 10.0 mi WSW 12.7 mph 19.6 mph N/A   Partly Cloudy
3:53 PM 86.0 °F 87.3 °F 64.0 °F 48% 29.93 in 10.0 mi WSW 10.4 mph 18.4 mph N/A   Mostly Cloudy
4:30 PM 84.2 °F 85.6 °F 64.4 °F 51% 29.97 in 10.0 mi WNW 11.5 mph - N/A   Mostly Cloudy
4:53 PM 86.0 °F 87.6 °F 64.9 °F 49% 29.92 in 10.0 mi WNW 8.1 mph - N/A   Mostly Cloudy
5:05 PM 86.0 °F 87.3 °F 64.4 °F 48% 29.96 in 10.0 mi WSW 11.5 mph - N/A   Mostly Cloudy
5:53 PM 86.0 °F 87.3 °F 64.0 °F 48% 29.91 in 10.0 mi Variable 10.4 mph 19.6 mph N/A   Mostly Cloudy
6:53 PM 84.9 °F 86.1 °F 64.0 °F 49% 29.91 in 10.0 mi WNW 11.5 mph 17.3 mph N/A   Clear
7:53 PM 84.0 °F 84.9 °F 63.0 °F 49% 29.91 in 10.0 mi WNW 8.1 mph - N/A   Scattered Clouds
8:53 PM 82.0 °F 82.7 °F 61.0 °F 49% 29.92 in 10.0 mi North 6.9 mph - N/A   Clear
9:53 PM 79.0 °F - 64.9 °F 62% 29.95 in 10.0 mi North 6.9 mph - N/A   Clear
10:53 PM 75.9 °F - 64.9 °F 69% 29.96 in 10.0 mi North 3.5 mph - N/A   Clear
11:53 PM 75.0 °F - 64.9 °F 71% 29.97 in 10.0 mi North 3.5 mph - N/A   Clear